Temp
-8 -8 -8 -8 -8 -9 -10 -10 -10 -11 -11 -9 -9 -9 -10 -10 -8 -9 -10 -9 -9 -9 -9 -10 -10 -10 -10 -10 -10 -10 -10 -10 -10 -10 -10 -10 -11 -11 -11 -11 -11 -11 -11 -11
-8 -8 -8 -8 -8 -9 -9 -9 -11 -11 -11 -9 -9 -9 -11 -12 -9 -9 -10 -10 -10 -10 -10 -10 -10 -10 -10 -10 -10 -10 -10 -10 -10 -10 -11 -10 -11 -11 -11 -11 -12 -12 -11 -12
-8 -11 -8 -8 -9 -9 -9 -9 -11 -11 -11 -9 -9 -10 -12 -12 -11 -9 -10 -10 -10 -10 -10 -10 -10 -10 -10 -10 -10 -10 -10 -11 -11 -11 -11 -11 -11 -11 -11 -11 -12 -12 -12 -12
-9 -9 -8 -9 -9 -9 -10 -10 -10 -11 -11 -10 -11 -10 -11 -12 -11 -10 -10 -10 -10 -10 -10 -10 -10 -10 -10 -10 -11 -10 -11 -11 -11 -11 -11 -11 -12 -12 -12 -12 -12 -13 -13 -13
-9 -9 -9 -9 -9 -9 -11 -10 -9 -10 -10 -10 -11 -11 -11 -11 -12 -10 -10 -10 -10 -10 -10 -10 -11 -11 -10 -11 -11 -11 -11 -11 -11 -11 -12 -12 -12 -12 -13 -13 -13 -13 -13 -13
-10 -9 -9 -10 -10 -9 -10 -9 -10 -10 -10 -10 -10 -11 -11 -11 -12 -12 -10 -10 -10 -10 -11 -11 -11 -11 -11 -11 -11 -12 -12 -11 -12 -12 -12 -12 -13 -13 -13 -13 -13 -13 -13 -13
-10 -10 -10 -10 -10 -10 -10 -10 -10 -11 -11 -11 -12 -11 -11 -11 -11 -11 -11 -11 -11 -11 -11 -11 -11 -11 -12 -12 -12 -11 -11 -12 -12 -13 -13 -13 -13 -13 -13 -13 -13 -13 -13 -14
-12 -12 -10 -10 -10 -11 -10 -11 -12 -11 -11 -11 -12 -11 -12 -10 -11 -11 -11 -11 -11 -11 -11 -11 -11 -12 -12 -12 -12 -12 -12 -13 -13 -13 -13 -13 -13 -13 -13 -13 -13 -14 -14 -14
-13 -12 -13 -10 -10 -11 -13 -12 -13 -13 -12 -11 -12 -12 -12 -11 -11 -11 -11 -11 -11 -11 -11 -12 -12 -12 -12 -12 -12 -13 -13 -13 -13 -13 -13 -13 -13 -13 -13 -14 -14 -14 -14 -14
-12 -12 -12 -11 -11 -11 -11 -13 -13 -13 -12 -12 -12 -12 -12 -12 -12 -11 -11 -11 -12 -12 -11 -12 -12 -12 -12 -12 -12 -13 -13 -13 -13 -13 -13 -13 -13 -13 -14 -14 -14 -14 -14 -14
-13 -12 -13 -13 -11 -12 -12 -12 -12 -13 -13 -12 -13 -12 -12 -12 -12 -12 -12 -13 -13 -12 -11 -12 -12 -13 -12 -13 -13 -13 -13 -13 -13 -13 -13 -13 -13 -14 -14 -14 -13 -14 -14 -14
-14 -14 -14 -14 -14 -14 -14 -13 -14 -14 -14 -13 -13 -12 -13 -13 -13 -12 -13 -14 -14 -12 -12 -12 -12 -13 -13 -13 -13 -13 -13 -13 -13 -13 -13 -13 -14 -14 -14 -14 -14 -14 -15 -15
-14 -14 -14 -14 -13 -13 -13 -13 -14 -13 -14 -13 -12 -12 -13 -13 -13 -13 -13 -13 -12 -13 -13 -13 -13 -13 -13 -13 -13 -13 -13 -13 -13 -13 -13 -14 -14 -14 -14 -14 -15 -15 -15 -15
-14 -14 -14 -14 -14 -13 -13 -13 -14 -14 -14 -13 -14 -14 -13 -12 -13 -12 -13 -13 -13 -13 -13 -13 -13 -13 -13 -13 -13 -13 -13 -13 -13 -13 -14 -15 -14 -14 -14 -14 -15 -15 -15 -15
-14 -14 -14 -15 -14 -14 -13 -13 -13 -14 -14 -14 -14 -13 -13 -13 -13 -14 -13 -13 -13 -13 -13 -13 -13 -13 -13 -13 -13 -13 -13 -13 -13 -14 -15 -15 -14 -14 -15 -14 -15 -15 -15 -15
-14 -14 -14 -14 -14 -15 -14 -14 -12 -13 -13 -14 -14 -14 -14 -14 -14 -13 -13 -13 -13 -13 -13 -13 -13 -13 -13 -13 -13 -14 -13 -14 -14 -15 -15 -14 -14 -15 -15 -15 -15 -15 -15 -15
-13 -14 -14 -13 -15 -16 -14 -13 -14 -13 -14 -14 -14 -13 -14 -14 -14 -14 -13 -13 -13 -13 -13 -13 -13 -13 -13 -13 -14 -13 -13 -14 -15 -14 -14 -14 -15 -15 -15 -15 -15 -15 -15 -15
-13 -13 -14 -14 -16 -14 -13 -14 -14 -14 -13 -14 -14 -15 -15 -14 -14 -14 -14 -13 -13 -13 -13 -13 -13 -13 -13 -14 -13 -14 -14 -14 -14 -14 -14 -15 -15 -15 -14 -14 -14 -15 -15 -15
-13 -14 -14 -16 -17 -15 -14 -14 -15 -14 -14 -15 -15 -15 -15 -14 -14 -14 -14 -14 -13 -14 -14 -13 -13 -13 -13 -13 -14 -14 -14 -14 -14 -14 -14 -15 -15 -15 -14 -15 -14 -14 -15 -15
-14 -14 -14 -15 -16 -16 -16 -14 -13 -14 -15 -15 -15 -16 -14 -15 -15 -13 -14 -14 -14 -14 -13 -13 -13 -13 -13 -14 -14 -14 -14 -14 -14 -14 -15 -15 -15 -15 -15 -15 -14 -15 -15 -14
-15 -14 -14 -15 -15 -16 -17 -15 -15 -15 -14 -14 -15 -15 -15 -15 -14 -14 -14 -14 -14 -14 -13 -14 -14 -13 -13 -14 -14 -14 -14 -14 -14 -15 -14 -15 -15 -15 -15 -15 -15 -14 -15 -15
-15 -15 -15 -15 -16 -16 -16 -15 -15 -15 -15 -15 -15 -15 -14 -15 -15 -14 -14 -13 -14 -14 -13 -13 -13 -13 -14 -14 -14 -14 -14 -14 -14 -15 -15 -15 -15 -15 -15 -15 -14 -14 -14 -14
-15 -15 -15 -15 -16 -15 -16 -16 -15 -15 -15 -15 -15 -14 -14 -14 -15 -14 -14 -14 -14 -13 -13 -13 -13 -14 -14 -14 -14 -14 -14 -14 -15 -15 -15 -15 -15 -15 -15 -14 -14 -14 -14 -14
-16 -15 -16 -16 -16 -16 -16 -15 -15 -15 -15 -15 -15 -14 -14 -15 -15 -14 -14 -14 -14 -14 -13 -13 -14 -14 -14 -14 -14 -14 -15 -14 -15 -15 -15 -15 -15 -15 -14 -14 -14 -14 -14 -14
-16 -16 -16 -16 -16 -16 -16 -16 -15 -15 -15 -15 -15 -15 -15 -15 -15 -15 -14 -14 -14 -14 -14 -14 -14 -14 -14 -14 -14 -14 -15 -15 -15 -15 -15 -15 -15 -15 -15 -15 -14 -14 -14 -15
-17 -17 -17 -16 -16 -16 -16 -16 -16 -16 -16 -16 -15 -15 -15 -15 -15 -15 -14 -14 -14 -14 -14 -14 -14 -14 -14 -14 -14 -14 -15 -15 -16 -16 -16 -16 -16 -15 -15 -15 -15 -15 -15 -14
Height
5868 5870 5872 5874 5875 5878 5884 5884 5884 5884 5883 5877 5878 5878 5879 5874 5873 5872 5871 5872 5871 5870 5868 5867 5866 5864 5862 5860 5857 5855 5853 5850 5847 5843 5839 5835 5830 5824 5817 5811 5804 5798 5793 5787
5866 5867 5869 5870 5871 5873 5874 5876 5879 5880 5875 5875 5874 5874 5874 5872 5868 5869 5868 5868 5868 5866 5865 5863 5862 5860 5856 5854 5850 5847 5844 5841 5837 5833 5829 5825 5818 5812 5805 5799 5793 5787 5781 5774
5863 5862 5862 5866 5867 5868 5869 5871 5873 5875 5869 5870 5870 5869 5869 5869 5865 5865 5864 5865 5863 5863 5860 5858 5855 5853 5849 5846 5843 5839 5836 5832 5827 5823 5817 5812 5805 5799 5793 5786 5779 5773 5767 5761
5859 5857 5861 5861 5862 5864 5865 5864 5865 5866 5865 5866 5865 5866 5867 5864 5862 5860 5860 5860 5859 5857 5856 5853 5850 5845 5843 5839 5835 5832 5828 5823 5819 5812 5805 5800 5793 5787 5781 5775 5769 5762 5754 5746
5854 5852 5855 5857 5859 5859 5861 5856 5860 5860 5860 5860 5863 5860 5863 5862 5858 5856 5856 5855 5854 5852 5850 5847 5844 5838 5834 5833 5829 5824 5820 5815 5809 5803 5796 5789 5783 5775 5770 5762 5755 5748 5740 5732
5847 5844 5848 5851 5851 5853 5852 5854 5854 5854 5855 5853 5856 5856 5862 5861 5853 5852 5850 5849 5848 5847 5844 5840 5837 5832 5828 5823 5820 5817 5812 5805 5799 5792 5785 5778 5772 5765 5758 5750 5741 5734 5725 5717
5841 5840 5842 5844 5845 5846 5847 5848 5849 5849 5850 5850 5850 5851 5854 5847 5848 5847 5845 5843 5841 5840 5837 5834 5829 5824 5822 5817 5813 5809 5803 5795 5790 5783 5776 5768 5761 5753 5745 5737 5728 5720 5712 5703
5837 5838 5837 5837 5840 5840 5841 5843 5844 5844 5851 5853 5842 5844 5845 5840 5841 5841 5839 5836 5835 5833 5829 5825 5821 5818 5815 5811 5806 5799 5793 5787 5781 5774 5766 5758 5749 5741 5733 5724 5716 5707 5699 5691
5832 5832 5831 5830 5834 5835 5838 5836 5841 5840 5840 5841 5843 5843 5835 5833 5834 5833 5831 5830 5828 5825 5822 5818 5815 5810 5807 5803 5798 5792 5785 5778 5771 5763 5756 5748 5739 5730 5721 5712 5703 5696 5687 5679
5825 5825 5825 5824 5827 5828 5830 5834 5832 5832 5832 5834 5838 5838 5834 5825 5827 5825 5824 5822 5819 5817 5815 5813 5808 5805 5800 5795 5789 5783 5776 5769 5761 5754 5746 5737 5728 5718 5709 5701 5693 5684 5675 5667
5816 5818 5824 5817 5820 5823 5823 5824 5824 5828 5831 5827 5829 5834 5826 5823 5820 5820 5817 5814 5810 5807 5807 5804 5799 5797 5791 5786 5779 5773 5766 5759 5752 5745 5736 5727 5717 5708 5699 5690 5682 5673 5665 5657
5809 5810 5813 5818 5817 5818 5820 5820 5819 5820 5823 5823 5820 5821 5819 5816 5815 5812 5813 5811 5805 5802 5796 5794 5790 5786 5781 5776 5769 5763 5757 5751 5743 5735 5726 5716 5706 5697 5689 5679 5671 5662 5655 5648
5802 5802 5805 5808 5813 5810 5811 5813 5815 5815 5814 5815 5811 5809 5811 5809 5808 5806 5806 5803 5799 5796 5791 5785 5781 5776 5772 5767 5761 5755 5749 5742 5735 5726 5716 5705 5696 5687 5677 5667 5658 5650 5644 5638
5793 5795 5796 5800 5805 5804 5794 5800 5804 5806 5807 5807 5808 5810 5806 5801 5798 5797 5799 5795 5790 5787 5783 5778 5774 5769 5764 5759 5754 5748 5742 5734 5726 5715 5705 5696 5686 5676 5666 5655 5645 5640 5636 5632
5784 5786 5791 5790 5794 5797 5791 5788 5789 5797 5799 5800 5803 5802 5798 5795 5793 5789 5790 5787 5784 5780 5776 5771 5766 5762 5757 5753 5747 5741 5734 5726 5716 5705 5696 5686 5676 5666 5656 5649 5642 5638 5634 5628
5773 5777 5781 5780 5783 5785 5783 5787 5785 5778 5788 5791 5793 5795 5793 5784 5787 5785 5782 5780 5776 5773 5769 5764 5760 5756 5752 5746 5740 5734 5727 5718 5707 5697 5688 5678 5668 5657 5652 5647 5641 5636 5630 5625
5767 5769 5770 5768 5775 5773 5768 5779 5781 5780 5782 5785 5787 5782 5776 5779 5779 5778 5775 5773 5770 5767 5763 5759 5755 5751 5746 5741 5735 5728 5720 5709 5699 5690 5681 5671 5661 5655 5649 5645 5640 5634 5629 5625
5760 5761 5763 5762 5764 5757 5766 5766 5762 5768 5771 5775 5774 5775 5772 5769 5773 5770 5769 5767 5764 5760 5757 5753 5749 5746 5741 5735 5729 5721 5712 5702 5692 5683 5673 5665 5659 5653 5648 5644 5639 5633 5629 5625
5752 5753 5753 5752 5753 5752 5753 5755 5757 5759 5763 5763 5763 5764 5763 5764 5764 5764 5764 5761 5757 5754 5751 5748 5745 5741 5736 5730 5723 5714 5705 5695 5686 5677 5667 5662 5656 5651 5647 5643 5638 5633 5630 5626
5742 5744 5744 5744 5743 5745 5751 5745 5747 5741 5749 5753 5755 5755 5753 5758 5756 5758 5758 5754 5751 5748 5745 5743 5740 5736 5731 5724 5717 5708 5699 5689 5680 5670 5662 5658 5654 5650 5647 5642 5637 5634 5630 5628
5734 5735 5736 5735 5734 5738 5739 5740 5739 5739 5745 5743 5748 5746 5748 5747 5752 5751 5750 5747 5745 5743 5742 5738 5735 5731 5726 5720 5711 5703 5694 5683 5674 5664 5659 5656 5653 5649 5646 5642 5638 5634 5632 5629
5725 5726 5728 5729 5727 5730 5729 5730 5734 5734 5735 5737 5739 5739 5739 5744 5744 5745 5744 5742 5741 5740 5737 5734 5731 5727 5722 5715 5707 5699 5689 5679 5670 5661 5657 5655 5651 5647 5645 5642 5639 5636 5634 5631
5717 5719 5719 5722 5722 5720 5722 5722 5723 5726 5727 5730 5729 5728 5735 5736 5738 5738 5738 5737 5736 5735 5733 5729 5727 5723 5718 5711 5703 5695 5685 5676 5666 5660 5655 5652 5648 5645 5643 5641 5639 5638 5635 5633
5708 5710 5712 5712 5714 5714 5713 5715 5716 5719 5720 5719 5722 5724 5725 5729 5731 5732 5732 5732 5732 5731 5729 5725 5723 5720 5714 5707 5700 5691 5682 5674 5665 5659 5654 5649 5646 5643 5642 5641 5640 5639 5636 5634
5699 5704 5705 5705 5705 5706 5707 5708 5709 5709 5712 5712 5716 5717 5718 5722 5725 5726 5726 5727 5727 5727 5725 5722 5719 5716 5710 5704 5697 5689 5681 5672 5664 5659 5653 5649 5646 5645 5643 5642 5641 5640 5637 5635
5693 5695 5696 5697 5699 5700 5701 5703 5705 5706 5706 5708 5709 5711 5714 5717 5719 5720 5722 5723 5723 5722 5720 5718 5716 5713 5707 5702 5695 5687 5680 5672 5666 5661 5656 5651 5649 5647 5646 5645 5644 5643 5642 5641
Wind_Speed
17 17 17 17 16 14 17 17 16 20 20 23 21 22 19 29 27 25 22 21 21 22 23 24 26 29 31 32 35 35 36 38 39 42 43 45 46 46 48 50 51 50 48 48
17 18 19 20 18 18 21 20 17 18 25 23 23 23 22 24 28 22 22 21 21 23 24 27 28 31 33 34 36 37 39 41 43 44 46 47 48 50 51 52 51 49 50 52
19 19 25 20 21 20 20 20 17 19 25 24 23 22 23 22 28 22 21 19 23 25 29 30 32 32 34 36 38 40 41 44 46 48 51 51 53 54 55 54 52 52 54 56
22 28 21 23 23 22 21 23 24 23 23 20 23 20 20 24 27 22 20 21 24 27 28 30 32 34 35 37 39 41 44 47 49 51 53 54 56 57 54 51 53 54 57 58
21 28 24 25 25 25 22 31 25 26 26 24 20 24 17 17 29 23 21 22 24 27 29 30 32 37 40 37 40 43 46 49 51 53 54 56 57 53 52 54 58 58 59 60
25 30 25 22 26 27 30 27 27 25 24 27 22 22 16 16 26 23 23 23 26 27 28 31 34 37 40 42 43 45 48 50 52 54 56 54 53 55 56 57 58 59 61 64
25 29 26 26 26 27 27 26 24 22 18 20 19 20 16 29 33 28 26 26 29 28 29 32 36 38 39 43 45 47 48 51 53 55 52 53 54 55 55 56 58 61 62 59
18 20 26 27 25 25 26 23 19 23 11 12 28 25 18 29 26 27 27 28 29 29 33 36 37 38 41 43 45 48 49 51 52 49 51 52 51 52 55 58 59 57 58 58
17 20 20 30 24 25 17 22 19 22 22 28 21 20 26 30 25 26 27 28 29 30 32 35 37 40 42 43 45 46 48 49 48 49 49 49 53 56 58 56 55 57 56 56
22 26 25 31 27 28 27 20 23 24 27 25 16 20 19 34 25 24 25 28 30 32 33 35 38 38 40 42 44 46 47 46 47 47 49 53 56 59 56 54 54 55 54 52
25 28 19 32 29 22 24 28 30 21 20 19 20 16 25 28 31 23 25 26 31 35 33 37 39 38 41 42 45 46 46 47 46 48 52 56 58 55 53 53 54 55 52 50
25 25 24 24 21 19 19 22 20 22 22 28 30 29 23 28 24 26 21 22 29 35 44 41 40 40 42 44 46 46 45 45 46 50 55 58 53 52 52 55 54 53 49 47
32 32 29 25 23 32 32 29 27 24 23 26 25 13 21 27 24 24 23 27 34 36 39 40 41 42 43 44 43 43 43 43 48 53 56 52 50 53 57 56 55 53 46 36
34 37 37 34 29 28 28 26 27 29 29 26 25 24 24 22 31 28 24 31 35 35 36 39 39 41 41 39 41 39 41 46 51 55 51 49 53 56 56 59 39 28 27 30
36 37 39 40 39 39 44 26 26 26 29 27 24 24 17 31 33 36 31 34 35 35 35 37 39 39 36 37 35 39 43 49 54 49 49 53 54 55 42 29 25 24 27 28
33 33 33 39 35 41 44 42 30 22 25 28 25 29 36 46 33 33 36 37 35 33 33 36 36 32 34 32 36 40 46 50 49 47 50 52 58 25 24 25 25 25 24 22
28 29 34 34 38 47 48 44 42 42 34 29 29 24 35 36 34 36 38 34 33 30 34 31 29 31 30 33 37 40 46 51 45 46 51 54 28 25 24 23 20 22 20 21
26 28 30 37 34 43 33 31 50 45 33 26 30 37 38 40 36 39 35 30 28 28 27 27 28 28 30 34 37 42 47 49 43 47 48 33 24 21 20 18 20 19 16 19
24 24 28 32 31 35 34 28 26 33 41 38 40 37 40 38 37 35 24 27 24 24 23 25 25 26 31 35 39 43 48 48 42 47 43 20 20 19 16 18 17 17 15 14
23 22 28 29 31 31 27 33 28 32 32 26 30 35 37 35 36 25 25 26 23 22 22 22 23 27 32 36 39 43 49 44 43 47 25 14 15 14 12 16 15 14 14 10
25 23 24 26 31 29 33 37 34 38 22 25 30 36 31 35 26 25 26 24 22 21 21 20 23 29 33 37 39 43 49 41 45 37 14 12 12 10 11 12 14 15 12 10
29 25 22 23 27 28 33 36 33 29 34 36 31 35 29 24 26 25 24 23 21 20 19 19 24 28 32 37 39 43 44 40 41 23 11 14 13 14 14 8 9 13 13 13
30 26 25 22 27 30 30 32 32 33 23 29 42 40 22 26 24 22 22 20 20 19 17 20 24 28 32 37 37 43 40 39 34 22 15 14 16 16 5 4 5 7 10 15
28 26 26 25 25 27 29 27 27 21 30 27 33 32 25 25 20 20 18 18 19 18 17 19 22 27 32 35 37 42 37 39 30 23 17 15 11 6 5 5 3 6 9 11
25 22 22 24 26 25 23 24 25 21 21 20 27 28 19 21 20 16 16 18 18 17 16 17 21 26 31 33 35 39 36 36 26 20 16 11 7 10 10 9 8 9 12 14
28 26 27 23 24 24 23 22 22 25 22 17 14 21 17 19 16 13 16 16 16 16 16 16 20 25 30 31 34 37 33 33 21 17 12 11 12 13 14 16 19 19 18 15
Wind_Direction
237 237 240 244 244 216 225 244 221 245 247 276 282 278 253 272 287 288 283 283 288 291 294 296 293 292 292 294 296 296 295 297 300 302 303 303 302 303 306 308 308 305 302 301
243 246 246 240 242 242 243 239 238 240 244 270 275 275 257 256 286 284 283 283 281 282 282 282 283 283 286 290 293 295 296 300 301 302 303 303 304 307 308 308 306 303 303 303
247 242 242 246 246 247 248 245 235 236 267 267 272 269 257 252 264 284 280 279 278 278 279 283 285 285 288 291 294 296 300 302 305 304 305 307 308 309 310 309 307 308 307 306
250 254 256 249 246 243 249 254 238 232 254 272 284 272 265 274 262 280 276 272 275 277 280 282 286 289 289 294 296 300 302 304 304 305 308 310 311 310 309 308 309 308 307 307
255 253 257 257 256 254 233 241 256 256 262 262 253 272 260 246 252 277 274 276 274 276 282 286 288 290 294 296 298 301 303 303 305 308 310 311 310 308 309 310 311 308 306 306
247 255 255 250 252 255 255 262 263 264 263 263 266 252 257 264 270 269 281 282 279 284 287 288 286 291 295 299 301 303 303 305 308 310 310 309 309 309 309 309 308 307 306 305
252 261 254 254 252 253 256 259 262 265 263 268 248 250 228 246 250 267 281 281 284 287 286 285 290 292 298 298 301 302 304 306 309 308 307 309 311 311 310 310 308 306 306 307
260 257 262 259 252 260 254 251 250 248 230 266 261 272 255 261 263 269 273 279 283 285 286 290 294 293 296 299 301 303 304 305 305 307 310 313 313 314 312 309 306 308 308 307
247 254 242 263 254 246 250 256 242 252 241 225 241 274 277 276 270 274 279 280 282 284 285 289 292 293 296 299 300 301 304 305 309 313 314 314 316 314 311 309 309 308 308 310
250 247 256 262 257 253 247 242 252 254 254 260 271 239 261 277 286 286 286 287 286 287 289 288 288 292 296 298 299 303 306 310 313 315 315 316 316 314 311 309 308 310 311 310
249 252 243 265 262 257 260 248 252 238 255 270 244 238 256 267 284 289 296 297 297 299 293 293 294 297 298 301 304 308 311 313 314 316 317 316 314 310 309 310 312 312 312 313
252 250 245 247 276 260 227 254 264 248 242 256 270 259 247 267 269 280 284 280 280 298 294 298 301 303 305 306 309 311 314 314 316 318 316 314 310 312 312 313 312 310 310 313
253 253 254 254 243 253 264 250 238 248 245 243 264 268 269 271 269 270 280 287 293 293 295 300 304 305 306 308 311 314 316 318 319 316 315 313 315 315 315 314 310 307 307 306
256 258 258 256 235 234 251 233 246 246 243 258 256 271 249 280 283 273 285 295 299 297 298 301 303 304 307 311 314 316 319 321 318 318 318 318 318 317 317 314 318 323 318 317
253 255 256 268 257 246 249 273 227 237 253 245 254 257 268 259 270 287 295 300 300 299 300 302 303 305 308 313 318 321 322 321 322 321 321 320 319 320 320 330 328 328 322 321
264 264 261 264 269 255 248 244 254 251 241 239 255 256 258 263 275 284 294 300 300 301 301 302 303 306 311 318 322 324 323 324 325 323 322 322 322 327 331 337 336 332 333 332
264 268 267 280 265 259 260 240 246 249 242 252 251 263 255 270 280 289 296 295 297 298 300 303 306 312 317 322 324 322 326 329 324 322 325 326 330 334 337 337 342 345 341 341
260 269 269 271 262 266 274 260 242 234 241 241 244 255 264 269 280 286 290 295 295 293 297 305 310 316 322 324 324 326 330 331 325 326 327 326 333 338 344 346 347 349 355 359
255 270 271 262 262 274 269 274 264 260 254 249 246 253 258 269 276 281 288 294 289 292 302 309 314 321 324 326 328 328 331 332 327 327 324 319 336 346 348 349 349 2 2 4
254 263 273 273 265 261 266 261 259 223 252 266 260 258 262 270 275 272 284 298 292 298 304 311 320 324 327 330 329 331 333 332 329 326 323 320 340 352 346 349 5 4 356 19
251 261 271 273 270 267 261 258 262 264 244 245 261 253 266 266 268 274 292 295 292 294 304 315 323 327 331 333 331 333 334 333 331 327 332 328 341 337 344 357 15 28 27 29
254 254 265 272 265 264 262 267 263 267 269 269 262 258 265 266 266 270 285 287 288 293 304 319 324 331 332 335 333 334 337 336 333 335 316 315 319 330 347 2 16 35 42 34
250 254 258 264 261 261 262 264 264 259 277 263 253 261 259 259 262 268 275 281 285 291 304 317 328 333 336 336 334 338 339 339 336 340 328 326 322 325 348 34 39 41 33 26
247 249 255 261 262 261 262 264 258 255 269 263 261 266 273 243 250 255 269 276 281 289 301 317 331 333 338 336 337 343 340 341 340 341 338 339 351 31 75 79 88 30 10 10
239 244 249 254 259 258 261 263 252 253 254 258 254 245 230 229 247 256 268 274 278 287 302 321 331 333 338 337 339 347 343 345 343 351 356 11 58 79 78 80 68 52 59 71
239 243 244 247 258 258 254 259 253 248 260 267 253 230 236 235 240 253 268 277 281 288 303 320 327 333 338 338 342 348 348 348 348 360 26 57 76 91 92 89 92 89 86 78